IZ3TCG-13 Weather Reports


Display with metric or nautical units.
time (UTC)temp
F
wind
direction
speed
MPH
gust
MPH
rain 1hr
in
rain 24hr
in
rain mn
in
humidity
%
barometer
mb
20260510200214 61 287 0.0 2.0 0.00 0.07 0.07 95 1011.2
20260510195813 60 305 0.0 2.0 0.00 0.07 0.07 95 1011.4
20260510195203 60 359 0.0 2.0 0.00 0.07 0.07 95 1011.4
20260510194803 60 356 0.0 2.0 0.00 0.07 0.07 95 1011.0
20260510194403 60 345 0.0 2.0 0.00 0.07 0.07 95 1011.0
20260510194003 60 360 0.0 2.0 0.00 0.07 0.07 96 1011.0
20260510193603 60 337 0.0 2.0 0.00 0.07 0.07 96 1011.1
20260510193203 60 339 0.0 2.0 0.00 0.07 0.07 96 1011.2
20260510192803 60 4 0.0 2.0 0.00 0.07 0.07 96 1011.1
20260510192403 60 18 0.0 2.0 0.00 0.07 0.07 96 1011.2
20260510192212 60 24 0.0 2.0 0.00 0.07 0.07 96 1011.1
20260510191603 60 22 0.0 2.0 0.00 0.07 0.07 96 1011.2
20260510191203 60 5 1.0 2.0 0.00 0.07 0.07 96 1011.1
20260510190803 60 352 0.0 2.0 0.00 0.07 0.07 96 1011.2
20260510190403 60 15 0.0 2.0 0.00 0.07 0.07 96 1010.9
20260510190004 60 20 0.0 4.0 0.00 0.07 0.07 96 1011.1
20260510185603 60 19 0.0 4.0 0.00 0.07 0.07 96 1011.0
20260510185203 60 19 2.0 4.0 0.00 0.07 0.07 96 1010.8
20260510185017 60 14 1.0 4.0 0.00 0.07 0.07 96 1011.0
20260510184405 60 9 1.0 4.0 0.00 0.07 0.07 96 1011.1
20260510184004 60 16 2.0 4.0 0.00 0.07 0.07 97 1011.0
20260510183603 60 7 1.0 2.0 0.00 0.07 0.07 97 1011.1
20260510183203 60 351 1.0 2.0 0.00 0.07 0.07 97 1011.1
20260510182803 60 353 0.0 2.0 0.00 0.07 0.07 97 1011.0
20260510182403 60 345 1.0 4.0 0.00 0.07 0.07 97 1011.0
20260510182213 60 344 0.0 4.0 0.00 0.07 0.07 97 1011.1
20260510181603 61 360 1.0 4.0 0.00 0.07 0.07 97 1011.0
20260510181417 61 7 1.0 4.0 0.00 0.07 0.07 97 1011.0
20260510180803 60 9 1.0 4.0 0.00 0.07 0.07 97 1010.9
20260510180403 61 13 2.0 2.0 0.00 0.07 0.07 97 1010.8
20260510180003 61 25 0.0 2.0 0.00 0.07 0.07 97 1011.0
20260510175603 61 32 1.0 4.0 0.00 0.07 0.07 97 1010.9
20260510175203 61 22 0.0 4.0 0.00 0.07 0.07 97 1010.9
20260510174803 61 21 2.0 4.0 0.00 0.07 0.07 97 1010.9
20260510174617 61 19 2.0 4.0 0.00 0.07 0.07 97 1011.1
20260510174003 61 20 1.0 4.0 0.00 0.07 0.07 97 1011.1
20260510173603 61 22 1.0 4.0 0.00 0.07 0.07 97 1011.0
20260510173203 61 15 2.0 4.0 0.00 0.07 0.07 97 1010.9
20260510172803 61 19 2.0 6.0 0.00 0.07 0.07 97 1011.1
20260510172403 61 31 2.0 6.0 0.00 0.07 0.07 97 1010.9
20260510172003 61 30 2.0 6.0 0.00 0.07 0.07 97 1011.1
20260510171603 61 25 2.0 6.0 0.00 0.07 0.07 98 1011.1
20260510171203 61 25 0.0 4.0 0.00 0.07 0.07 98 1011.0
20260510170803 61 40 0.0 4.0 0.00 0.07 0.07 98 1011.2
20260510170403 60 50 2.0 4.0 0.00 0.07 0.07 98 1011.3
20260510170003 61 68 2.0 4.0 0.00 0.07 0.07 98 1011.2
20260510165603 61 42 0.0 4.0 0.00 0.07 0.07 98 1011.3
20260510165203 61 24 0.0 4.0 0.00 0.07 0.07 98 1011.3
20260510164803 61 18 1.0 2.0 0.00 0.07 0.07 98 1011.3
20260510164613 61 35 1.0 2.0 0.00 0.07 0.07 98 1011.0
20260510164003 61 83 1.0 2.0 0.01 0.07 0.07 98 1011.2
20260510163603 61 58 0.0 4.0 0.01 0.07 0.07 98 1011.3
20260510163203 60 52 1.0 4.0 0.01 0.07 0.07 98 1011.3
20260510162803 60 53 2.0 4.0 0.01 0.07 0.07 98 1011.2
20260510162403 60 74 2.0 4.0 0.01 0.07 0.07 98 1011.3
20260510162003 61 80 1.0 4.0 0.02 0.07 0.07 98 1011.4
20260510161813 60 76 1.0 2.0 0.02 0.07 0.07 98 1011.3
20260510161203 60 69 0.0 2.0 0.02 0.07 0.07 98 1011.6
20260510160803 60 66 0.0 2.0 0.02 0.07 0.07 97 1011.5
20260510160403 60 76 0.0 2.0 0.02 0.07 0.07 97 1011.5
20260510160003 61 85 1.0 6.0 0.04 0.07 0.07 97 1011.4
20260510155603 61 91 1.0 6.0 0.04 0.07 0.07 97 1011.6
20260510155415 61 93 2.0 7.0 0.04 0.07 0.07 97 1011.5
20260510154803 61 87 3.0 7.0 0.05 0.07 0.07 96 1011.7
20260510154403 61 81 3.0 7.0 0.05 0.07 0.07 97 1011.6
20260510154213 62 77 2.0 6.0 0.05 0.07 0.07 97 1011.7
20260510153604 62 90 2.0 4.0 0.05 0.06 0.06 97 1011.7
20260510153204 62 87 0.0 4.0 0.05 0.06 0.06 97 1011.7
20260510152803 62 86 2.0 4.0 0.05 0.06 0.06 97 1011.6
20260510152403 62 84 2.0 4.0 0.05 0.06 0.06 97 1011.7
20260510152003 62 88 1.0 4.0 0.04 0.05 0.05 97 1011.7
20260510151603 62 82 2.0 4.0 0.04 0.05 0.05 97 1011.7
20260510151203 62 81 2.0 4.0 0.04 0.05 0.05 96 1011.8
20260510151013 62 81 2.0 4.0 0.04 0.05 0.05 96 1011.6
20260510150403 63 88 2.0 4.0 0.04 0.05 0.05 96 1011.7
20260510150217 63 90 2.0 4.0 0.04 0.05 0.05 96 1011.9
20260510145603 63 90 3.0 6.0 0.02 0.04 0.04 96 1011.8
20260510145204 63 87 2.0 6.0 0.02 0.04 0.04 95 1011.7
20260510144803 63 86 3.0 6.0 0.01 0.02 0.02 95 1011.7
20260510144403 64 90 2.0 4.0 0.02 0.02 0.02 95 1011.7
20260510144003 64 97 0.0 4.0 0.02 0.02 0.02 95 1011.5
20260510143813 64 97 0.0 4.0 0.02 0.02 0.02 95 1011.8
20260510143203 64 88 2.0 7.0 0.01 0.01 0.01 95 1011.7
20260510142803 64 93 0.0 7.0 0.01 0.01 0.01 94 1011.7
20260510142616 64 94 4.0 7.0 0.01 0.01 0.01 94 1011.8
20260510142004 64 81 2.0 6.0 0.01 0.01 0.01 94 1011.7
20260510141603 64 73 2.0 6.0 0.01 0.01 0.01 94 1011.5
20260510141414 64 69 3.0 6.0 0.01 0.01 0.01 93 1011.8
20260510141013 64 75 0.0 4.0 0.01 0.01 0.01 94 1011.6
20260510140403 64 82 0.0 4.0 0.01 0.01 0.01 93 1011.7
20260510140004 64 93 2.0 6.0 0.01 0.01 0.01 93 1011.7
20260510135603 64 91 2.0 7.0 0.01 0.01 0.01 93 1011.7
20260510135203 64 81 3.0 7.0 0.01 0.01 0.01 92 1011.8
20260510134803 64 77 2.0 7.0 0.01 0.01 0.01 91 1011.7
20260510134403 64 77 4.0 6.0 0.00 0.00 0.00 91 1011.7
20260510134003 64 82 2.0 6.0 0.00 0.00 0.00 91 1011.7
20260510133603 64 79 2.0 4.0 0.00 0.00 0.00 91 1012.0
20260510133203 64 86 2.0 4.0 0.00 0.00 0.00 91 1012.0
20260510132804 64 88 2.0 6.0 0.00 0.00 0.00 90 1012.1
20260510132404 64 84 2.0 6.0 0.00 0.00 0.00 90 1011.9
20260510132003 64 86 2.0 6.0 0.00 0.00 0.00 90 1011.8
20260510131603 64 87 2.0 6.0 0.00 0.00 0.00 90 1011.9
20260510131203 64 85 4.0 6.0 0.00 0.00 0.00 89 1012.0
20260510130803 64 86 3.0 6.0 0.00 0.00 0.00 89 1012.0
20260510130403 64 88 2.0 6.0 0.00 0.00 0.00 88 1012.2
20260510130004 64 86 2.0 6.0 0.00 0.00 0.00 87 1012.2
20260510125603 64 95 2.0 4.0 0.00 0.00 0.00 88 1012.1
20260510125203 64 96 2.0 4.0 0.00 0.00 0.00 86 1012.1
20260510124803 64 93 2.0 4.0 0.00 0.00 0.00 86 1012.3
20260510124403 65 91 2.0 4.0 0.00 0.00 0.00 85 1012.1
20260510124003 65 86 1.0 4.0 0.00 0.00 0.00 85 1012.3
20260510123814 65 86 1.0 4.0 0.00 0.00 0.00 84 1012.2
20260510123203 65 90 2.0 6.0 0.00 0.00 0.00 82 1012.3
20260510122803 65 93 1.0 6.0 0.00 0.00 0.00 82 1012.4
20260510122403 66 92 3.0 6.0 0.00 0.00 0.00 79 1012.4
20260510122003 66 89 2.0 4.0 0.00 0.00 0.00 79 1012.3
20260510121603 67 88 1.0 4.0 0.00 0.00 0.00 78 1012.4
20260510121203 67 69 1.0 4.0 0.00 0.00 0.00 75 1012.5
20260510120803 67 62 1.0 4.0 0.00 0.00 0.00 74 1012.3
20260510120403 67 95 1.0 4.0 0.00 0.00 0.00 73 1012.4
20260510120004 67 91 0.0 4.0 0.00 0.00 0.00 73 1012.3
20260510115603 67 84 3.0 4.0 0.00 0.00 0.00 73 1012.3
20260510115203 67 83 2.0 4.0 0.00 0.00 0.00 73 1012.4
20260510114803 67 76 1.0 4.0 0.00 0.00 0.00 75 1012.4
20260510114616 67 76 0.0 4.0 0.00 0.00 0.00 74 1012.4
20260510114003 67 91 1.0 4.0 0.00 0.00 0.00 75 1012.3
20260510113815 67 93 1.0 4.0 0.00 0.00 0.00 74 1012.5
20260510113203 67 72 0.0 6.0 0.00 0.00 0.00 75 1012.4
20260510112803 68 26 2.0 6.0 0.00 0.00 0.00 75 1012.5
20260510112403 67 16 2.0 6.0 0.00 0.00 0.00 74 1012.6
20260510112003 67 34 2.0 6.0 0.00 0.00 0.00 75 1012.5
20260510111817 67 68 2.0 6.0 0.00 0.00 0.00 75 1012.4
20260510111203 67 100 2.0 4.0 0.00 0.00 0.00 75 1012.5
20260510110804 68 86 2.0 4.0 0.00 0.00 0.00 76 1012.8
20260510110403 68 74 2.0 2.0 0.00 0.00 0.00 76 1012.9
20260510110004 68 75 1.0 2.0 0.00 0.00 0.00 76 1012.6
20260510105603 68 40 0.0 4.0 0.00 0.00 0.00 77 1012.9
20260510105203 68 30 0.0 4.0 0.00 0.00 0.00 78 1012.7
20260510104803 67 21 2.0 4.0 0.00 0.00 0.00 77 1012.6
20260510104403 67 27 2.0 4.0 0.00 0.00 0.00 77 1012.5
20260510104003 67 31 2.0 4.0 0.00 0.00 0.00 77 1013.1
20260510103815 67 38 1.0 4.0 0.00 0.00 0.00 77 1012.8
20260510103203 67 43 1.0 4.0 0.00 0.00 0.00 77 1013.0
20260510102803 67 26 1.0 4.0 0.00 0.00 0.00 78 1012.9
20260510102403 67 19 0.0 4.0 0.00 0.00 0.00 78 1013.1
20260510102003 67 20 2.0 4.0 0.00 0.00 0.00 79 1012.9
20260510101603 67 31 2.0 4.0 0.00 0.00 0.00 79 1012.8
20260510101203 67 37 2.0 4.0 0.00 0.00 0.00 80 1013.0
20260510100803 67 17 1.0 4.0 0.00 0.00 0.00 79 1013.1
20260510100615 67 8 1.0 4.0 0.00 0.00 0.00 78 1013.4
20260510095603 67 24 1.0 4.0 0.00 0.00 0.00 79 1010.6
20260510095203 67 17 1.0 4.0 0.00 0.00 0.00 80 1010.5
20260510094803 67 55 1.0 4.0 0.00 0.00 0.00 80 1010.6
20260510094403 67 72 0.0 2.0 0.00 0.00 0.00 81 1010.6
20260510094003 67 73 2.0 2.0 0.00 0.00 0.00 81 1010.7
20260510093603 67 70 1.0 2.0 0.00 0.00 0.00 81 1010.6
20260510093203 67 25 1.0 2.0 0.00 0.00 0.00 81 1010.5
20260510092803 67 353 0.0 4.0 0.00 0.00 0.00 81 1010.5
20260510092403 67 349 0.0 4.0 0.00 0.00 0.00 79 1010.5
20260510092003 67 359 0.0 4.0 0.00 0.00 0.00 80 1010.4
20260510091603 67 12 1.0 4.0 0.00 0.00 0.00 80 1010.4
20260510091417 67 10 2.0 4.0 0.00 0.00 0.00 80 1010.4
20260510091016 67 2 2.0 6.0 0.00 0.00 0.00 80 1010.4
20260510090616 67 8 1.0 6.0 0.00 0.00 0.00 80 1010.4
20260510090004 67 26 2.0 6.0 0.00 0.00 0.00 81 1010.6
20260510085814 67 22 1.0 6.0 0.00 0.00 0.00 80 1010.7
20260510085203 67 18 1.0 6.0 0.00 0.00 0.00 83 1010.5
20260510084803 66 27 2.0 4.0 0.00 0.00 0.00 84 1010.8
20260510084612 66 26 2.0 4.0 0.00 0.00 0.00 83 1010.7
20260510084003 66 31 2.0 4.0 0.00 0.00 0.00 84 1010.8
20260510083603 66 64 0.0 4.0 0.00 0.00 0.00 84 1010.8
20260510083203 66 75 0.0 6.0 0.00 0.00 0.00 84 1010.7
20260510082803 66 80 2.0 6.0 0.00 0.00 0.00 85 1010.7
20260510082403 66 66 1.0 6.0 0.00 0.00 0.00 85 1010.7
20260510082003 66 79 2.0 4.0 0.00 0.00 0.00 84 1010.5
20260510081813 66 69 2.0 4.0 0.00 0.00 0.00 84 1010.8
20260510081204 66 46 2.0 6.0 0.00 0.00 0.00 84 1010.3
20260510080803 66 33 3.0 6.0 0.00 0.00 0.00 83 1010.6
20260510080403 66 28 0.0 4.0 0.00 0.00 0.00 84 1010.1
20260510080004 66 21 0.0 4.0 0.00 0.00 0.00 84 1010.4
20260510075603 66 28 1.0 6.0 0.00 0.00 0.00 83 1010.3
20260510075414 66 31 2.0 6.0 0.00 0.00 0.00 83 1010.6
20260510074803 66 16 1.0 4.0 0.00 0.00 0.00 82 1010.4
20260510074403 66 24 2.0 4.0 0.00 0.00 0.00 83 1010.5
20260510074003 66 4 2.0 4.0 0.00 0.00 0.00 83 1010.5
20260510073603 66 1 3.0 4.0 0.00 0.00 0.00 82 1010.5
20260510073203 66 11 2.0 4.0 0.00 0.00 0.00 83 1010.4
20260510072803 65 10 2.0 4.0 0.00 0.00 0.00 83 1010.3
20260510072615 65 2 1.0 4.0 0.00 0.00 0.00 83 1010.5
20260510072214 65 357 2.0 4.0 0.00 0.00 0.00 84 1010.7
20260510071814 65 345 1.0 4.0 0.00 0.00 0.00 84 1010.6
20260510071413 65 360 2.0 4.0 0.00 0.00 0.00 84 1010.5
20260510071018 64 360 0.0 4.0 0.00 0.00 0.00 85 1010.5
20260510070403 64 352 2.0 4.0 0.00 0.00 0.00 84 1010.5
20260510070004 64 2 2.0 4.0 0.00 0.00 0.00 84 1010.6
20260510065603 64 355 0.0 2.0 0.00 0.00 0.00 85 1010.5
20260510065203 64 27 0.0 2.0 0.00 0.00 0.00 85 1010.4
20260510065014 64 28 1.0 2.0 0.00 0.00 0.00 84 1010.4
20260510064403 64 99 0.0 2.0 0.00 0.00 0.00 86 1010.7
20260510064003 63 95 0.0 2.0 0.00 0.00 0.00 87 1010.7
20260510063603 63 58 1.0 2.0 0.00 0.00 0.00 87 1010.9
20260510063203 62 38 1.0 2.0 0.00 0.00 0.00 88 1010.8
20260510062803 62 15 0.0 2.0 0.00 0.00 0.00 87 1011.0
20260510062403 62 7 1.0 2.0 0.00 0.00 0.00 87 1010.7
20260510062003 62 359 1.0 2.0 0.00 0.00 0.00 86 1010.6
20260510061603 62 354 0.0 2.0 0.00 0.00 0.00 86 1010.8
20260510061203 62 351 0.0 2.0 0.00 0.00 0.00 86 1010.8
20260510060803 62 337 0.0 2.0 0.00 0.00 0.00 86 1010.8
20260510060403 62 0 0.0 0.0 0.00 0.00 0.00 86 1010.7
20260510060217 62 0 0.0 0.0 0.00 0.00 0.00 86 1011.0
20260510055816 62 0 0.0 0.0 0.00 0.00 0.00 87 1010.9
20260510055416 61 360 0.0 2.0 0.00 0.00 0.00 87 1010.9
20260510054803 61 7 0.0 2.0 0.00 0.00 0.00 87 1010.6
20260510054403 60 9 0.0 2.0 0.00 0.00 0.00 88 1010.7
20260510054003 60 7 1.0 4.0 0.00 0.00 0.00 87 1010.7
20260510053603 60 16 0.0 4.0 0.00 0.00 0.00 88 1010.7
20260510053203 60 29 1.0 4.0 0.00 0.00 0.00 88 1010.5
20260510052803 60 21 1.0 4.0 0.00 0.00 0.00 88 1010.6
20260510052403 60 4 1.0 4.0 0.00 0.00 0.00 88 1010.6
20260510052003 60 7 2.0 2.0 0.00 0.00 0.00 88 1010.4
20260510051603 60 360 0.0 2.0 0.00 0.00 0.00 88 1010.4
20260510051203 60 345 0.0 4.0 0.00 0.00 0.00 88 1010.5
20260510050803 60 356 0.0 4.0 0.00 0.00 0.00 88 1010.4
20260510050403 60 1 1.0 4.0 0.00 0.00 0.00 88 1010.4
20260510050212 60 6 0.0 2.0 0.00 0.00 0.00 88 1010.5
20260510045603 59 21 1.0 4.0 0.00 0.00 0.00 88 1010.6
20260510045203 59 3 1.0 4.0 0.00 0.00 0.00 88 1010.3
20260510044803 59 360 1.0 4.0 0.00 0.00 0.00 87 1010.4
20260510044403 59 17 1.0 4.0 0.00 0.00 0.00 87 1010.6
20260510044003 59 23 1.0 4.0 0.00 0.00 0.00 87 1010.4
20260510043603 60 25 0.0 4.0 0.00 0.00 0.00 87 1010.7
20260510043203 59 23 2.0 4.0 0.00 0.00 0.00 86 1010.6
20260510042803 59 22 1.0 4.0 0.00 0.00 0.00 86 1010.8
20260510042403 59 24 1.0 2.0 0.00 0.00 0.00 87 1010.7
20260510042003 59 27 1.0 2.0 0.00 0.00 0.00 87 1010.3
20260510041603 59 28 1.0 2.0 0.00 0.00 0.00 87 1010.7
20260510041203 59 18 0.0 4.0 0.00 0.00 0.00 87 1010.5
20260510040803 59 9 0.0 6.0 0.00 0.00 0.00 86 1010.7
20260510040403 59 9 2.0 6.0 0.00 0.00 0.00 86 1010.7
20260510040003 59 5 2.0 6.0 0.00 0.00 0.00 86 1010.6
20260510035603 59 30 0.0 2.0 0.00 0.00 0.00 87 1010.9
20260510035203 59 14 0.0 4.0 0.00 0.00 0.00 86 1010.7
20260510034803 60 12 0.0 4.0 0.00 0.00 0.00 85 1010.9
20260510034403 60 20 2.0 7.0 0.00 0.00 0.00 85 1010.8
20260510034004 60 19 2.0 7.0 0.00 0.00 0.00 85 1011.1
20260510033603 60 12 3.0 7.0 0.00 0.00 0.00 85 1010.8
20260510033203 60 12 2.0 4.0 0.00 0.00 0.00 86 1010.9
20260510032803 59 2 2.0 4.0 0.00 0.00 0.00 87 1011.2
20260510032403 59 9 0.0 4.0 0.00 0.00 0.00 87 1011.0
20260510032003 59 12 0.0 4.0 0.00 0.00 0.00 88 1010.9
20260510031603 59 10 1.0 4.0 0.00 0.00 0.00 88 1010.9
20260510031416 59 4 1.0 4.0 0.00 0.00 0.00 89 1010.9
20260510030803 58 3 2.0 4.0 0.00 0.00 0.00 92 1010.8
20260510030403 57 17 1.0 4.0 0.00 0.00 0.00 95 1011.2
20260510030003 57 22 1.0 4.0 0.00 0.00 0.00 96 1011.2
20260510025603 56 0 0.0 0.0 0.00 0.00 0.00 97 1011.2
20260510025203 56 0 0.0 0.0 0.00 0.00 0.00 97 1011.2
20260510024803 56 0 0.0 0.0 0.00 0.00 0.00 97 1011.0
20260510024403 56 0 0.0 0.0 0.00 0.00 0.00 97 1011.3
20260510024216 56 0 0.0 0.0 0.00 0.00 0.00 97 1011.3
20260510023603 56 0 0.0 0.0 0.00 0.00 0.00 96 1011.2
20260510023203 56 0 0.0 0.0 0.00 0.00 0.00 96 1011.3
20260510023014 56 0 0.0 0.0 0.00 0.00 0.00 96 1011.3
20260510022403 57 0 0.0 0.0 0.00 0.00 0.00 95 1011.4
20260510022217 57 0 0.0 0.0 0.00 0.00 0.00 95 1011.3
20260510021603 57 0 0.0 0.0 0.00 0.00 0.00 95 1011.7
20260510021203 57 0 0.0 0.0 0.00 0.00 0.00 94 1011.6
20260510021016 57 0 0.0 0.0 0.00 0.00 0.00 94 1011.5
20260510020615 58 0 0.0 0.0 0.00 0.00 0.00 94 1011.4
20260510020004 58 0 0.0 0.0 0.00 0.00 0.00 94 1011.5
20260510015603 59 0 0.0 0.0 0.00 0.00 0.00 93 1011.5
20260510015203 59 0 0.0 0.0 0.00 0.00 0.00 93 1011.6
20260510015017 59 0 0.0 0.0 0.00 0.00 0.00 93 1011.5
20260510014403 59 360 0.0 2.0 0.00 0.00 0.00 92 1011.6
20260510014003 59 360 0.0 2.0 0.00 0.00 0.00 92 1011.5
20260510013603 59 360 0.0 2.0 0.00 0.00 0.00 92 1011.4
20260510013203 59 360 0.0 2.0 0.00 0.00 0.00 92 1011.5
20260510013014 59 360 0.0 2.0 0.00 0.00 0.00 92 1011.6
20260510012614 59 360 0.0 2.0 0.00 0.00 0.00 91 1011.6
20260510012213 59 22 0.0 2.0 0.00 0.00 0.00 91 1011.4
20260510011817 59 16 0.0 2.0 0.00 0.00 0.00 90 1011.7
20260510011417 60 12 0.0 2.0 0.00 0.00 0.00 90 1011.8
20260510010803 59 360 0.0 2.0 0.00 0.00 0.00 90 1011.7
20260510010403 59 360 0.0 2.0 0.00 0.00 0.00 89 1011.9
20260510010004 59 4 0.0 2.0 0.00 0.00 0.00 89 1011.8
20260510005603 59 5 0.0 2.0 0.00 0.00 0.00 89 1011.6
20260510005203 59 343 1.0 2.0 0.00 0.00 0.00 89 1011.8
20260510004803 59 337 0.0 2.0 0.00 0.00 0.00 89 1011.5
20260510004612 59 337 0.0 2.0 0.00 0.00 0.00 89 1011.7
20260510004003 58 0 0.0 0.0 0.00 0.00 0.00 90 1011.8
20260510003603 58 0 0.0 0.0 0.00 0.00 0.00 90 1012.0
20260510003203 58 0 0.0 0.0 0.00 0.00 0.00 91 1011.8
20260510002803 58 0 0.0 0.0 0.00 0.00 0.00 91 1012.1
20260510002403 57 0 0.0 0.0 0.00 0.00 0.00 91 1012.2
20260510002003 57 0 0.0 0.0 0.00 0.00 0.00 90 1011.9
20260510001603 58 0 0.0 0.0 0.00 0.00 0.00 90 1011.9
20260510001203 58 0 0.0 0.0 0.00 0.00 0.00 89 1011.9
20260510000803 58 0 0.0 0.0 0.00 0.00 0.00 88 1012.0
20260510000404 58 0 0.0 0.0 0.00 0.00 0.00 88 1012.1
20260510000004 58 0 0.0 0.0 0.00 0.00 0.00 88 1012.1
20260509235603 58 0 0.0 0.0 0.00 0.00 0.00 88 1012.0
20260509235203 59 0 0.0 0.0 0.00 0.00 0.00 88 1011.9
20260509234803 59 0 0.0 0.0 0.00 0.00 0.00 88 1012.2
20260509234613 59 0 0.0 0.0 0.00 0.00 0.00 87 1012.0
20260509234218 59 0 0.0 0.0 0.00 0.00 0.00 87 1012.2
20260509233817 59 0 0.0 0.0 0.00 0.00 0.00 87 1012.3
20260509233416 59 0 0.0 0.0 0.00 0.00 0.00 87 1012.3
20260509232803 58 0 0.0 0.0 0.00 0.00 0.00 87 1012.3
20260509232403 59 0 0.0 0.0 0.00 0.00 0.00 87 1012.4
20260509232003 59 0 0.0 0.0 0.00 0.00 0.00 87 1012.3
20260509231603 58 0 0.0 0.0 0.00 0.00 0.00 88 1012.1
20260509231203 58 0 0.0 0.0 0.00 0.00 0.00 88 1012.4
20260509231017 58 0 0.0 0.0 0.00 0.00 0.00 88 1012.4
20260509230403 58 0 0.0 0.0 0.00 0.00 0.00 87 1012.5
20260509230216 59 0 0.0 0.0 0.00 0.00 0.00 87 1012.3
20260509225603 59 0 0.0 0.0 0.00 0.00 0.00 85 1012.4
20260509225203 59 0 0.0 0.0 0.00 0.00 0.00 85 1012.2
20260509224803 60 0 0.0 0.0 0.00 0.00 0.00 85 1012.1
20260509224403 60 0 0.0 0.0 0.00 0.00 0.00 84 1012.3
20260509224213 60 0 0.0 0.0 0.00 0.00 0.00 83 1012.2
20260509223603 60 0 0.0 0.0 0.00 0.00 0.00 83 1012.3
20260509223203 61 0 0.0 0.0 0.00 0.00 0.00 81 1012.2
20260509223016 61 0 0.0 0.0 0.00 0.00 0.00 81 1012.4
20260509222403 61 0 0.0 0.0 0.00 0.00 0.00 80 1012.5
20260509222003 61 0 0.0 0.0 0.00 0.00 0.00 81 1012.3
20260509221603 61 0 0.0 0.0 0.00 0.00 0.00 81 1012.0
20260509221414 61 0 0.0 0.0 0.00 0.00 0.00 81 1012.4
20260509220803 61 0 0.0 0.0 0.00 0.00 0.00 81 1012.3
20260509220403 61 0 0.0 0.0 0.00 0.00 0.00 80 1012.3
20260509220007 61 0 0.0 0.0 0.00 0.00 0.00 81 1012.4
20260509215603 62 0 0.0 0.0 0.00 0.00 0.00 81 1012.3
20260509215416 62 0 0.0 0.0 0.00 0.00 0.00 81 1012.3
20260509215015 62 0 0.0 0.0 0.00 0.00 0.00 80 1012.2
20260509214403 62 0 0.0 0.0 0.00 0.00 0.00 80 1012.4
20260509214214 62 0 0.0 0.0 0.00 0.00 0.00 80 1012.2
20260509213603 62 0 0.0 0.0 0.00 0.00 0.00 79 1012.2
20260509213203 62 0 0.0 0.0 0.00 0.00 0.00 79 1012.3
20260509212803 62 0 0.0 0.0 0.00 0.00 0.00 79 1012.3
20260509212403 62 0 0.0 0.0 0.00 0.00 0.00 78 1012.3
20260509212003 62 0 0.0 0.0 0.00 0.00 0.00 79 1012.4
20260509211603 62 0 0.0 0.0 0.00 0.00 0.00 79 1012.6
20260509211203 63 22 0.0 2.0 0.00 0.00 0.00 78 1012.2
20260509210803 63 22 0.0 2.0 0.00 0.00 0.00 77 1012.3
20260509210403 63 22 0.0 2.0 0.00 0.00 0.00 77 1012.3
20260509210003 63 0 0.0 0.0 0.00 0.00 0.00 78 1012.3
20260509205603 64 341 0.0 4.0 0.00 0.00 0.00 76 1012.4
20260509205203 64 339 0.0 4.0 0.00 0.00 0.00 76 1012.0
20260509204804 64 334 0.0 4.0 0.00 0.00 0.00 76 1012.3
20260509204404 63 337 0.0 2.0 0.00 0.00 0.00 76 1012.1
20260509204003 63 0 0.0 0.0 0.00 0.00 0.00 77 1012.2
20260509203603 62 0 0.0 0.0 0.00 0.00 0.00 78 1012.0
20260509203203 62 0 0.0 0.0 0.00 0.00 0.00 77 1012.0
20260509202803 62 0 0.0 0.0 0.00 0.00 0.00 78 1012.1
20260509202403 62 0 0.0 0.0 0.00 0.00 0.00 79 1012.2
20260509202003 62 0 0.0 0.0 0.00 0.00 0.00 78 1011.9
20260509201816 62 0 0.0 0.0 0.00 0.00 0.00 79 1012.1
20260509201203 63 157 0.0 2.0 0.00 0.00 0.00 78 1012.0
20260509200803 63 157 0.0 2.0 0.00 0.00 0.00 78 1012.1
20260509200403 63 157 0.0 2.0 0.00 0.00 0.00 77 1011.9